FW3572 Weather Reports


Display with metric or nautical units.
time (UTC)temp
F
wind
direction
speed
MPH
gust
MPH
rain 1hr
in
rain 24hr
in
rain mn
in
humidity
%
barometer
mb
20210804072002 72 237 3.0 7.0 0.00 1.66 0.00 77 1016.1
20210804071505 72 218 2.0 7.0 0.00 1.66 0.00 77 1016.2
20210804071002 72 233 2.0 5.0 0.00 1.66 0.00 77 1016.2
20210804070502 72 240 2.0 5.0 0.00 1.66 0.00 77 1016.2
20210804070008 72 232 1.0 5.0 0.00 1.66 0.00 77 1016.2
20210804065505 72 218 2.0 5.0 0.00 1.66 0.00 78 1016.2
20210804065101 72 239 3.0 8.0 0.00 1.66 0.00 78 1016.3
20210804064730 72 224 3.0 8.0 0.00 1.66 0.00 79 1016.3
20210804064059 72 252 2.0 7.0 0.00 1.66 0.00 79 1016.3
20210804063559 72 184 2.0 6.0 0.00 1.66 0.00 80 1016.3
20210804063328 72 228 2.0 5.0 0.00 1.66 0.00 81 1016.3
20210804062603 72 200 2.0 5.0 0.00 1.66 0.00 81 1016.5
20210804062056 72 200 1.0 4.0 0.00 1.66 0.00 82 1016.5
20210804061627 72 235 2.0 4.0 0.00 1.66 0.00 83 1016.6
20210804061118 72 232 1.0 4.0 0.00 1.66 0.00 83 1016.7
20210804060557 72 228 1.0 4.0 0.00 1.66 0.00 84 1016.8
20210804060200 72 205 1.0 5.0 0.00 1.66 0.00 84 1016.8
20210804055557 72 221 2.0 5.0 0.00 1.66 0.00 84 1016.9
20210804055055 72 177 3.0 5.0 0.00 1.66 0.00 84 1017.1
20210804054652 72 203 2.0 6.0 0.00 1.66 0.00 85 1017.0
20210804054105 72 193 3.0 6.0 0.00 1.66 0.00 85 1017.1
20210804053608 72 202 2.0 6.0 0.00 1.66 0.00 85 1017.2
20210804053150 72 186 2.0 5.0 0.00 1.66 0.00 85 1017.3
20210804052605 72 171 2.0 5.0 0.00 1.66 0.00 85 1017.2
20210804052048 72 198 2.0 5.0 0.00 1.66 0.00 85 1017.4
20210804051914 72 173 2.0 5.0 0.00 1.66 0.00 85 1017.3
20210804051049 72 185 2.0 7.0 0.00 1.66 0.00 86 1017.5
20210804050546 72 147 1.0 7.0 0.00 1.66 0.00 86 1017.6
20210804050159 72 186 2.0 4.0 0.00 1.66 0.00 86 1017.6
20210804045545 72 175 1.0 4.0 0.00 1.66 0.00 86 1017.7
20210804045048 72 181 0.0 3.0 0.00 1.66 0.00 86 1017.8
20210804044631 72 194 0.0 3.0 0.00 1.66 0.00 86 1017.8
20210804044042 72 192 0.0 4.0 0.00 1.66 0.00 86 1017.9
20210804043544 72 191 1.0 5.0 0.00 1.66 0.00 86 1017.9
20210804043136 72 186 1.0 6.0 0.00 1.66 0.00 86 1017.9
20210804042547 72 208 1.0 6.0 0.00 1.66 0.00 86 1018.1
20210804042054 73 162 2.0 6.0 0.00 1.66 0.00 86 1018.1
20210804041616 73 196 1.0 5.0 0.00 1.66 0.00 86 1018.1
20210804041039 73 198 2.0 5.0 0.00 1.66 0.00 86 1018.1
20210804040545 73 194 1.0 4.0 0.00 1.66 0.00 86 1018.1
20210804040044 73 195 1.0 4.0 0.00 1.66 0.00 86 1018.2
20210804035541 73 195 2.0 5.0 0.00 1.66 1.66 86 1018.1
20210804035103 73 202 2.0 5.0 0.00 1.66 1.66 86 1018.1
20210804034601 73 167 2.0 6.0 0.00 1.66 1.66 86 1018.1
20210804034038 73 221 2.0 7.0 0.00 1.66 1.66 86 1018.1
20210804033540 73 202 2.0 5.0 0.00 1.66 1.66 86 1018.2
20210804033050 73 210 2.0 5.0 0.00 1.66 1.66 86 1018.1
20210804032550 73 168 3.0 5.0 0.00 1.66 1.66 86 1018.2
20210804032051 73 187 2.0 4.0 0.00 1.66 1.66 86 1018.1
20210804031630 73 190 1.0 3.0 0.00 1.66 1.66 86 1018.2
20210804031051 73 190 1.0 2.0 0.00 1.66 1.66 86 1018.2
20210804030545 73 190 1.0 3.0 0.00 1.66 1.66 86 1018.2
20210804030059 73 189 1.0 3.0 0.00 1.66 1.66 86 1018.2
20210804025535 73 188 1.0 3.0 0.00 1.66 1.66 86 1018.2
20210804025040 73 244 0.0 5.0 0.00 1.66 1.66 86 1018.2
20210804024558 73 195 1.0 5.0 0.00 1.66 1.66 86 1018.2
20210804024039 73 199 1.0 7.0 0.00 1.66 1.66 86 1018.2
20210804023539 73 159 3.0 7.0 0.00 1.66 1.66 86 1018.3
20210804023105 73 175 3.0 6.0 0.00 1.66 1.66 86 1018.3
20210804022538 73 177 2.0 7.0 0.00 1.66 1.66 86 1018.2
20210804022041 73 187 3.0 5.0 0.00 1.66 1.66 86 1018.2
20210804021632 73 180 2.0 6.0 0.00 1.66 1.66 86 1018.2
20210804021037 73 167 2.0 6.0 0.00 1.66 1.66 86 1018.2
20210804020537 73 187 2.0 6.0 0.00 1.66 1.66 86 1018.2
20210804020153 73 180 2.0 6.0 0.00 1.66 1.66 86 1018.2
20210804015550 73 180 3.0 8.0 0.00 1.66 1.66 85 1018.2
20210804015043 73 172 2.0 8.0 0.00 1.66 1.66 85 1018.2
20210804014607 73 180 3.0 7.0 0.00 1.66 1.66 85 1018.1
20210804014034 73 183 2.0 7.0 0.00 1.66 1.66 85 1018.1
20210804013531 73 186 2.0 8.0 0.00 1.66 1.66 85 1018.0
20210804013146 73 173 3.0 6.0 0.00 1.66 1.66 85 1018.1
20210804012542 73 209 3.0 6.0 0.00 1.66 1.66 85 1018.0
20210804012032 73 160 3.0 8.0 0.00 1.66 1.66 85 1017.9
20210804011555 73 173 3.0 8.0 0.00 1.66 1.66 85 1017.8
20210804011034 73 236 3.0 8.0 0.00 1.66 1.66 85 1017.7
20210804010530 73 170 3.0 8.0 0.00 1.66 1.66 85 1017.6
20210804010113 73 232 3.0 8.0 0.00 1.66 1.66 85 1017.4
20210804005552 73 234 3.0 7.0 0.00 1.66 1.66 85 1017.3
20210804005042 73 192 3.0 9.0 0.00 1.66 1.66 85 1017.2
20210804004546 73 208 3.0 9.0 0.00 1.66 1.66 85 1017.1
20210804004029 73 200 2.0 7.0 0.00 1.66 1.66 85 1017.0
20210804003534 73 196 3.0 7.0 0.01 1.66 1.66 85 1017.0
20210804003118 73 222 2.0 8.0 0.01 1.66 1.66 85 1017.0
20210804002531 73 240 4.0 8.0 0.02 1.66 1.66 85 1017.1
20210804002045 73 211 3.0 8.0 0.02 1.66 1.66 85 1017.1
20210804001543 73 234 4.0 9.0 0.04 1.66 1.66 85 1017.1
20210804001030 73 210 3.0 8.0 0.04 1.66 1.66 85 1017.2
20210804000529 73 271 2.0 7.0 0.05 1.66 1.66 85 1017.3
20210804000044 73 232 2.0 7.0 0.07 1.66 1.66 85 1017.3
20210803235532 73 264 0.0 7.0 0.08 1.66 1.66 85 1017.5
20210803235040 73 216 2.0 7.0 0.09 1.66 1.66 85 1017.5
20210803234616 73 208 2.0 5.0 0.10 1.66 1.66 85 1017.6
20210803234032 73 223 2.0 5.0 0.11 1.66 1.66 85 1017.8
20210803233526 73 243 1.0 3.0 0.11 1.65 1.65 85 1017.8
20210803233157 73 246 1.0 3.0 0.12 1.65 1.65 85 1017.8
20210803232530 73 246 1.0 3.0 0.12 1.64 1.64 85 1017.8
20210803232028 73 247 0.0 4.0 0.13 1.64 1.64 85 1018.0
20210803231636 73 250 1.0 5.0 0.12 1.62 1.62 85 1018.1
20210803231025 73 238 2.0 8.0 0.14 1.62 1.62 85 1018.3
20210803230528 73 236 1.0 5.0 0.18 1.60 1.60 85 1018.3
20210803230118 73 234 2.0 5.0 0.22 1.59 1.59 85 1018.4
20210803225525 74 235 3.0 9.0 0.25 2.25 1.58 85 1018.5
20210803225042 74 246 2.0 8.0 0.27 2.24 1.57 85 1018.6
20210803224651 74 251 2.0 6.0 0.28 2.23 1.56 85 1018.6
20210803224025 73 244 2.0 6.0 0.31 2.22 1.55 85 1018.5
20210803223524 73 230 2.0 8.0 0.32 2.21 1.54 84 1018.4
20210803223030 73 240 2.0 6.0 0.33 2.20 1.53 84 1018.4
20210803222524 73 190 1.0 6.0 0.42 2.19 1.52 84 1018.4
20210803222031 73 238 3.0 8.0 0.52 2.18 1.51 84 1018.6
20210803221545 73 236 1.0 5.0 0.51 2.17 1.50 83 1018.6
20210803221024 74 240 0.0 4.0 0.50 2.14 1.47 83 1018.5
20210803220523 74 232 0.0 4.0 0.47 2.09 1.42 83 1018.6
20210803220140 74 324 0.0 5.0 0.42 2.02 1.36 82 1018.5
20210803215527 74 290 1.0 5.0 0.39 2.27 1.32 82 1018.8
20210803215039 74 344 0.0 0.0 0.39 2.25 1.30 82 1018.7
20210803214529 74 344 0.0 0.0 0.38 2.22 1.27 81 1018.5
20210803214032 74 345 0.0 4.0 0.36 2.18 1.23 81 1018.5
20210803213537 74 346 0.0 4.0 0.38 2.17 1.22 80 1018.4
20210803213110 74 322 0.0 6.0 0.37 2.15 1.20 80 1018.6
20210803212522 74 344 2.0 6.0 0.26 2.02 1.08 80 1018.9
20210803212043 74 332 1.0 3.0 0.17 1.94 0.99 79 1018.7
20210803211606 74 294 0.0 3.0 0.16 1.93 0.98 79 1018.4
20210803211036 74 227 0.0 3.0 0.15 1.92 0.97 78 1018.3
20210803210519 74 227 0.0 1.0 0.13 1.90 0.95 78 1018.2
20210803210041 74 227 0.0 2.0 0.12 1.89 0.94 78 1018.2
20210803205519 74 227 0.0 7.0 0.11 2.06 0.93 77 1018.3
20210803205019 74 230 0.0 7.0 0.09 2.04 0.91 76 1018.2
20210803204546 74 232 2.0 7.0 0.06 2.02 0.88 76 1018.2
20210803204021 74 229 4.0 7.0 0.05 2.00 0.87 76 1018.2
20210803203536 74 259 2.0 11.0 0.02 1.98 0.84 76 1018.2
20210803203028 74 215 4.0 9.0 0.01 1.97 0.83 75 1017.9
20210803202517 74 196 4.0 7.0 0.00 1.96 0.82 75 1017.5
20210803202020 74 226 3.0 10.0 0.00 1.96 0.82 75 1017.3
20210803201552 74 229 3.0 10.0 0.00 1.96 0.82 75 1017.2
20210803201016 74 166 4.0 15.0 0.00 1.96 0.82 75 1017.2
20210803200528 75 221 6.0 14.0 0.00 1.96 0.82 75 1017.2
20210803200020 75 159 6.0 14.0 0.00 1.96 0.82 75 1017.2
20210803195526 75 223 6.0 18.0 0.00 1.96 0.82 75 1017.3
20210803195027 76 229 6.0 18.0 0.00 1.96 0.82 75 1017.3
20210803194539 76 197 8.0 17.0 0.00 1.96 0.82 75 1017.3
20210803194016 77 205 6.0 17.0 0.00 1.96 0.82 75 1017.4
20210803193520 77 213 5.0 15.0 0.01 1.96 0.82 76 1017.3
20210803193020 77 163 3.0 12.0 0.02 1.96 0.82 76 1017.2
20210803192515 76 167 4.0 9.0 0.04 1.96 0.82 76 1017.2
20210803192013 76 173 1.0 7.0 0.04 1.96 0.82 76 1017.2
20210803191523 76 143 0.0 1.0 0.04 1.96 0.82 77 1017.2
20210803191014 75 144 0.0 3.0 0.04 1.96 0.82 76 1017.2
20210803190514 75 140 1.0 3.0 0.04 1.96 0.82 77 1017.0
20210803190030 75 136 0.0 3.0 0.08 1.96 0.82 77 1017.0
20210803185515 74 137 0.0 4.0 0.10 1.98 0.82 76 1017.2
20210803185024 73 137 1.0 6.0 0.11 1.98 0.82 76 1017.4
20210803184517 73 132 2.0 9.0 0.35 1.98 0.82 76 1017.5
20210803184012 73 124 4.0 9.0 0.66 1.98 0.82 76 1017.4
20210803183512 73 111 2.0 9.0 0.80 1.97 0.81 75 1017.4
20210803183109 73 187 1.0 9.0 0.79 1.96 0.80 75 1017.3
20210803182512 73 131 3.0 7.0 0.77 1.94 0.78 75 1017.3
20210803182010 73 152 1.0 8.0 0.78 1.94 0.78 75 1017.6
20210803181537 73 248 3.0 10.0 0.78 1.94 0.78 75 1017.7
20210803181010 73 219 4.0 16.0 0.78 1.94 0.78 75 1017.6
20210803180511 74 205 3.0 16.0 0.78 1.94 0.78 75 1017.7
20210803180024 75 210 4.0 12.0 0.73 1.89 0.73 75 1018.2
20210803175520 74 194 2.0 9.0 0.72 1.88 0.72 74 1017.9
20210803175006 75 101 3.0 15.0 0.70 1.86 0.70 73 1017.6
20210803174525 76 206 6.0 20.0 0.44 1.60 0.44 73 1018.3
20210803174012 78 245 10.0 20.0 0.12 1.28 0.12 68 1017.7
20210803173506 82 169 4.0 10.0 0.01 1.17 0.01 70 1017.4
20210803173017 83 188 4.0 9.0 0.01 1.17 0.01 69 1017.5
20210803172509 84 142 3.0 6.0 0.01 1.17 0.01 67 1017.2
20210803172005 85 171 1.0 5.0 0.00 1.15 0.00 66 1017.3
20210803171517 86 216 1.0 4.0 0.00 1.15 0.00 66 1017.1
20210803171004 86 218 0.0 10.0 0.00 1.15 0.00 64 1017.2
20210803170503 86 153 5.0 10.0 0.00 1.15 0.00 65 1017.3
20210803170017 86 131 3.0 8.0 0.00 1.15 0.00 65 1017.5
20210803165508 86 242 3.0 7.0 0.00 1.15 0.00 65 1017.5
20210803165002 85 236 3.0 10.0 0.00 1.15 0.00 65 1017.5
20210803164513 86 171 4.0 10.0 0.00 1.15 0.00 64 1017.5
20210803164003 86 239 4.0 10.0 0.00 1.15 0.00 64 1017.4
20210803163502 86 264 4.0 10.0 0.00 1.15 0.00 64 1017.5
20210803163007 86 191 2.0 8.0 0.00 1.15 0.00 63 1017.4
20210803162502 86 182 3.0 8.0 0.00 1.15 0.00 63 1017.3
20210803162001 86 238 2.0 8.0 0.00 1.15 0.00 63 1017.4
20210803161502 86 189 3.0 9.0 0.00 1.15 0.00 63 1017.4
20210803161004 85 254 3.0 7.0 0.00 1.15 0.00 62 1017.3
20210803160504 86 213 2.0 11.0 0.00 1.15 0.00 62 1017.3
20210803160003 86 155 3.0 11.0 0.00 1.15 0.00 62 1017.5
20210803155612 87 231 4.0 11.0 0.00 1.15 0.00 62 1017.6
20210803155100 86 240 5.0 11.0 0.00 1.15 0.00 62 1017.6
20210803154616 85 182 3.0 10.0 0.00 1.15 0.00 63 1017.6
20210803154119 84 201 4.0 10.0 0.00 1.15 0.00 64 1017.8
20210803153602 84 193 4.0 8.0 0.00 1.15 0.00 64 1017.7
20210803153255 84 181 2.0 7.0 0.00 1.15 0.00 65 1017.7
20210803152607 83 241 2.0 8.0 0.00 1.15 0.00 66 1017.7
20210803152057 83 198 3.0 8.0 0.00 1.15 0.00 65 1017.8
20210803151752 83 242 1.0 8.0 0.00 1.15 0.00 66 1017.9
20210803151103 82 175 2.0 8.0 0.00 1.15 0.00 65 1018.0
20210803150619 83 214 4.0 10.0 0.00 1.15 0.00 65 1018.0
20210803150145 83 173 6.0 16.0 0.00 1.15 0.00 66 1018.1
20210803145600 85 201 5.0 16.0 0.00 1.15 0.00 65 1018.1
20210803145103 85 243 4.0 11.0 0.00 1.15 0.00 66 1018.0
20210803144845 85 229 4.0 12.0 0.00 1.15 0.00 67 1018.0
20210803144056 85 217 6.0 12.0 0.00 1.15 0.00 67 1018.1
20210803143607 85 222 2.0 8.0 0.00 1.15 0.00 67 1017.9
20210803143132 85 241 3.0 9.0 0.00 1.15 0.00 68 1017.9
20210803142605 85 230 5.0 10.0 0.00 1.15 0.00 68 1017.9
20210803142054 85 220 3.0 9.0 0.00 1.15 0.00 68 1017.9
20210803141652 84 191 0.0 9.0 0.00 1.15 0.00 69 1017.8
20210803141052 84 229 1.0 9.0 0.00 1.15 0.00 69 1017.8
20210803140557 83 154 3.0 9.0 0.00 1.15 0.00 70 1017.8
20210803140237 83 196 1.0 9.0 0.00 1.15 0.00 71 1017.7
20210803135555 83 252 4.0 8.0 0.00 1.15 0.00 71 1017.7
20210803135048 83 234 2.0 7.0 0.00 1.15 0.00 72 1017.5
20210803134601 82 157 0.0 8.0 0.00 1.15 0.00 73 1017.6
20210803134046 82 170 2.0 8.0 0.00 1.15 0.00 73 1017.7
20210803133633 82 242 3.0 8.0 0.00 1.15 0.00 73 1017.8
20210803133153 82 179 1.0 6.0 0.00 1.15 0.00 73 1017.9
20210803132611 82 171 2.0 6.0 0.00 1.15 0.00 75 1018.1
20210803132042 81 245 1.0 5.0 0.00 1.15 0.00 75 1017.9
20210803131606 81 221 2.0 5.0 0.00 1.15 0.00 76 1018.0
20210803131041 81 213 1.0 5.0 0.00 1.15 0.00 76 1018.1
20210803130600 81 156 1.0 9.0 0.00 1.15 0.00 77 1018.2
20210803130208 81 227 1.0 8.0 0.00 1.15 0.00 78 1018.2
20210803125546 81 217 1.0 8.0 0.00 1.15 0.00 80 1018.2
20210803125039 80 250 3.0 8.0 0.00 1.15 0.00 82 1018.1
20210803124627 80 215 3.0 8.0 0.00 1.15 0.00 83 1018.0
20210803124038 80 261 3.0 8.0 0.00 1.15 0.00 84 1017.9
20210803123540 80 243 2.0 5.0 0.00 1.15 0.00 84 1017.9
20210803123110 79 213 2.0 5.0 0.00 1.15 0.00 85 1017.8
20210803122534 79 236 2.0 7.0 0.00 1.15 0.00 85 1017.8
20210803122038 79 184 1.0 7.0 0.00 1.15 0.00 85 1017.9
20210803121645 78 248 2.0 5.0 0.00 1.15 0.00 85 1017.8
20210803121038 78 186 1.0 3.0 0.00 1.15 0.00 85 1017.7
20210803120532 78 233 0.0 3.0 0.00 1.15 0.00 85 1017.7
20210803120112 78 229 0.0 5.0 0.00 1.15 0.00 85 1017.7
20210803115537 78 213 0.0 6.0 0.00 1.15 0.00 85 1017.7
20210803115029 77 211 0.0 6.0 0.00 1.15 0.00 85 1017.5
20210803114551 77 224 2.0 4.0 0.00 1.15 0.00 85 1017.6
20210803114027 77 208 1.0 2.0 0.00 1.15 0.00 85 1017.5
20210803113529 77 183 0.0 2.0 0.00 1.15 0.00 85 1017.5
20210803113048 77 182 0.0 3.0 0.00 1.15 0.00 85 1017.5
20210803112525 77 193 0.0 3.0 0.00 1.15 0.00 85 1017.4
20210803112039 77 190 0.0 2.0 0.00 1.15 0.00 84 1017.2
20210803111539 76 209 0.0 0.0 0.00 1.15 0.00 84 1017.3
20210803111025 76 210 0.0 0.0 0.00 1.15 0.00 84 1017.2
20210803110526 76 211 0.0 0.0 0.00 1.15 0.00 84 1017.1
20210803110100 76 210 0.0 1.0 0.00 1.15 0.00 84 1017.1
20210803105524 76 210 0.0 3.0 0.00 1.15 0.00 84 1017.0
20210803105022 76 210 0.0 3.0 0.00 1.15 0.00 84 1016.9
20210803104530 76 210 0.0 0.0 0.00 1.15 0.00 84 1016.9
20210803104019 76 211 0.0 1.0 0.00 1.15 0.00 84 1016.9
20210803103525 76 211 0.0 1.0 0.00 1.15 0.00 84 1016.9
20210803103029 76 190 0.0 4.0 0.00 1.15 0.00 84 1016.9
20210803102520 76 202 0.0 4.0 0.00 1.15 0.00 84 1016.9
20210803102026 76 169 0.0 0.0 0.00 1.15 0.00 83 1016.9
20210803101519 76 169 0.0 0.0 0.00 1.15 0.00 83 1016.9
20210803101009 76 169 0.0 0.0 0.00 1.15 0.00 83 1016.8
20210803100515 76 170 0.0 0.0 0.00 1.15 0.00 83 1016.7
20210803100009 76 200 0.0 0.0 0.00 1.15 0.00 82 1016.8
20210803095509 76 200 0.0 0.0 0.00 1.15 0.00 82 1016.8
20210803095028 76 200 0.0 0.0 0.00 1.15 0.00 82 1016.7
20210803094525 76 200 0.0 0.0 0.00 1.15 0.00 82 1016.7
20210803094034 76 200 0.0 0.0 0.00 1.15 0.00 82 1016.7
20210803093518 76 200 0.0 0.0 0.00 1.15 0.00 82 1016.7
20210803093007 76 200 0.0 0.0 0.00 1.15 0.00 81 1016.5
20210803092516 76 200 0.0 0.0 0.00 1.15 0.00 81 1016.4
20210803092006 76 200 0.0 0.0 0.00 1.15 0.00 81 1016.4
20210803091507 76 200 0.0 0.0 0.00 1.15 0.00 80 1016.4
20210803091006 76 200 0.0 0.0 0.00 1.15 0.00 81 1016.4
20210803090506 76 200 0.0 0.0 0.00 1.15 0.00 80 1016.5
20210803090005 76 200 0.0 0.0 0.00 1.15 0.00 80 1016.4
20210803085506 76 200 0.0 0.0 0.00 1.15 0.00 80 1016.4
20210803085010 76 200 0.0 0.0 0.00 1.15 0.00 80 1016.3
20210803084524 76 200 0.0 0.0 0.00 1.15 0.00 80 1016.2
20210803084005 76 200 0.0 0.0 0.00 1.15 0.00 80 1016.3
20210803083506 76 200 0.0 0.0 0.00 1.15 0.00 80 1016.3
20210803083016 76 200 0.0 0.0 0.00 1.15 0.00 79 1016.3
20210803082503 76 200 0.0 0.0 0.00 1.15 0.00 79 1016.4
20210803082003 76 200 0.0 0.0 0.00 1.15 0.00 79 1016.4
20210803081505 76 200 0.0 0.0 0.00 1.15 0.00 79 1016.5
20210803081003 76 200 0.0 0.0 0.00 1.15 0.00 78 1016.3
20210803080502 76 200 0.0 0.0 0.00 1.15 0.00 78 1016.3
20210803080002 76 200 0.0 0.0 0.00 1.15 0.00 78 1016.3
20210803075501 76 200 0.0 0.0 0.00 1.15 0.00 78 1016.5
20210803074646 76 200 0.0 0.0 0.00 1.15 0.00 78 1016.7
20210803074100 76 200 0.0 0.0 0.00 1.15 0.00 78 1016.8
20210803073606 76 200 0.0 0.0 0.00 1.15 0.00 78 1016.6
20210803073255 76 200 0.0 3.0 0.00 1.15 0.00 77 1016.7
20210803072620 76 200 0.0 3.0 0.00 1.15 0.00 77 1016.8
20210803072058 76 199 0.0 0.0 0.00 1.15 0.00 77 1016.7